Time,TemperatureF,DewpointF,PressureIn,WindDirection,WindDirectionDegrees,WindSpeedMPH,WindSpeedGustMPH,Humidity,HourlyPrecipIn,Conditions,Clouds,dailyrainin,SoftwareType,DateUTC
2013-02-19 00:02:00,26.0,15.0,30.16,WNW,302,4.0,12.0,63,0.00,,,0.03,,2013-02-19 06:02:00,
2013-02-19 00:12:00,26.0,15.0,30.16,WNW,302,4.0,12.0,63,0.00,,,0.03,,2013-02-19 06:12:00,
2013-02-19 00:21:00,26.0,15.0,30.16,WNW,302,4.0,12.0,63,0.00,,,0.03,,2013-02-19 06:21:00,
2013-02-19 00:32:00,25.0,15.0,30.16,NW,311,2.0,7.0,64,0.00,,,0.03,,2013-02-19 06:32:00,
2013-02-19 00:42:00,25.0,15.0,30.16,NW,311,2.0,7.0,64,0.00,,,0.03,,2013-02-19 06:42:00,
2013-02-19 00:52:00,25.0,15.0,30.17,NW,310,0.0,4.0,65,0.00,,,0.03,,2013-02-19 06:52:00,
2013-02-19 01:01:00,24.0,14.0,30.17,NW,310,0.0,4.0,66,0.00,,,0.03,,2013-02-19 07:01:00,
2013-02-19 01:11:00,24.0,14.0,30.17,NW,310,0.0,4.0,66,0.00,,,0.03,,2013-02-19 07:11:00,
2013-02-19 01:22:00,24.0,15.0,30.17,NW,310,0.0,2.0,67,0.00,,,0.03,,2013-02-19 07:22:00,
2013-02-19 01:32:00,24.0,15.0,30.18,WNW,288,0.0,5.0,68,0.00,,,0.03,,2013-02-19 07:32:00,
2013-02-19 01:42:00,24.0,15.0,30.18,WNW,288,0.0,5.0,68,0.00,,,0.03,,2013-02-19 07:42:00,
2013-02-19 01:52:00,23.0,14.0,30.18,NW,319,0.0,7.0,68,0.00,,,0.03,,2013-02-19 07:52:00,
2013-02-19 02:02:00,23.0,14.0,30.18,WSW,251,0.0,6.0,68,0.00,,,0.03,,2013-02-19 08:02:00,
2013-02-19 02:11:00,23.0,14.0,30.18,WSW,251,0.0,6.0,68,0.00,,,0.03,,2013-02-19 08:11:00,
2013-02-19 02:21:00,23.0,14.0,30.18,West,280,0.0,5.0,69,0.00,,,0.03,,2013-02-19 08:21:00,
2013-02-19 02:31:00,23.0,15.0,30.18,West,280,0.0,4.0,70,0.00,,,0.03,,2013-02-19 08:31:00,
2013-02-19 02:42:00,23.0,15.0,30.18,West,280,0.0,4.0,70,0.00,,,0.03,,2013-02-19 08:42:00,
2013-02-19 02:52:00,23.0,15.0,30.20,West,259,2.0,8.0,71,0.00,,,0.03,,2013-02-19 08:52:00,
2013-02-19 03:01:00,22.0,14.0,30.20,WSW,258,2.0,9.0,71,0.00,,,0.03,,2013-02-19 09:01:00,
2013-02-19 03:11:00,22.0,14.0,30.20,WSW,258,2.0,9.0,71,0.00,,,0.03,,2013-02-19 09:11:00,
2013-02-19 03:21:00,22.0,14.0,30.21,WNW,294,2.0,8.0,72,0.00,,,0.03,,2013-02-19 09:21:00,
2013-02-19 03:32:00,22.0,14.0,30.21,WNW,291,1.0,7.0,72,0.00,,,0.03,,2013-02-19 09:32:00,
2013-02-19 03:42:00,22.0,14.0,30.21,WNW,291,1.0,7.0,72,0.00,,,0.03,,2013-02-19 09:42:00,
2013-02-19 03:52:00,22.0,14.0,30.21,WNW,294,0.0,4.0,72,0.00,,,0.03,,2013-02-19 09:52:00,
2013-02-19 04:02:00,22.0,14.0,30.21,WNW,291,1.0,7.0,72,0.00,,,0.03,,2013-02-19 10:02:00,
2013-02-19 04:11:00,22.0,14.0,30.21,WNW,291,1.0,7.0,72,0.00,,,0.03,,2013-02-19 10:11:00,
2013-02-19 04:21:00,22.0,14.0,30.22,WNW,300,3.0,8.0,72,0.00,,,0.03,,2013-02-19 10:21:00,
2013-02-19 04:32:00,22.0,14.0,30.22,WNW,298,0.0,9.0,72,0.00,,,0.03,,2013-02-19 10:32:00,
2013-02-19 04:42:00,22.0,14.0,30.22,WNW,298,0.0,9.0,72,0.00,,,0.03,,2013-02-19 10:42:00,
2013-02-19 04:51:00,22.0,14.0,30.22,West,278,1.0,9.0,72,0.00,,,0.03,,2013-02-19 10:51:00,
2013-02-19 05:01:00,22.0,14.0,30.23,WNW,287,0.0,8.0,72,0.00,,,0.03,,2013-02-19 11:01:00,
2013-02-19 05:11:00,22.0,14.0,30.23,WNW,287,0.0,8.0,72,0.00,,,0.03,,2013-02-19 11:11:00,
2013-02-19 05:22:00,21.0,14.0,30.24,NW,307,1.0,6.0,73,0.00,,,0.03,,2013-02-19 11:22:00,
2013-02-19 05:32:00,21.0,14.0,30.25,WNW,294,0.0,8.0,73,0.00,,,0.03,,2013-02-19 11:32:00,
2013-02-19 05:42:00,21.0,14.0,30.25,WNW,294,0.0,8.0,73,0.00,,,0.03,,2013-02-19 11:42:00,
2013-02-19 05:52:00,21.0,14.0,30.26,WNW,290,1.0,5.0,74,0.00,,,0.03,,2013-02-19 11:52:00,
2013-02-19 06:01:00,20.0,13.0,30.26,WNW,283,0.0,4.0,75,0.00,,,0.03,,2013-02-19 12:01:00,
2013-02-19 06:12:00,20.0,13.0,30.26,WNW,283,0.0,4.0,75,0.00,,,0.03,,2013-02-19 12:12:00,
2013-02-19 06:22:00,20.0,13.0,30.27,WNW,298,0.0,5.0,75,0.00,,,0.03,,2013-02-19 12:22:00,
2013-02-19 06:32:00,21.0,15.0,30.27,WNW,300,2.0,10.0,76,0.00,,,0.03,,2013-02-19 12:32:00,
2013-02-19 06:42:00,21.0,15.0,30.27,WNW,300,2.0,10.0,76,0.00,,,0.03,,2013-02-19 12:42:00,
2013-02-19 06:52:00,20.0,14.0,30.28,WNW,302,3.0,8.0,76,0.00,,,0.03,,2013-02-19 12:52:00,
2013-02-19 07:02:00,20.0,14.0,30.29,West,263,3.0,10.0,76,0.00,,,0.03,,2013-02-19 13:02:00,
2013-02-19 07:11:00,20.0,14.0,30.29,West,263,3.0,10.0,76,0.00,,,0.03,,2013-02-19 13:11:00,
2013-02-19 07:22:00,20.0,13.0,30.29,WNW,303,6.0,14.0,75,0.00,,,0.03,,2013-02-19 13:22:00,
2013-02-19 07:32:00,20.0,13.0,30.30,NW,323,4.0,14.0,74,0.00,,,0.03,,2013-02-19 13:32:00,
2013-02-19 07:42:00,20.0,13.0,30.30,NW,323,4.0,14.0,74,0.00,,,0.03,,2013-02-19 13:42:00,
2013-02-19 07:52:00,20.0,13.0,30.31,NW,317,2.0,10.0,75,0.00,,,0.03,,2013-02-19 13:52:00,
2013-02-19 08:01:00,20.0,13.0,30.32,NW,318,2.0,10.0,75,0.00,,,0.03,,2013-02-19 14:01:00,
2013-02-19 08:11:00,20.0,13.0,30.32,NW,318,2.0,10.0,75,0.00,,,0.03,,2013-02-19 14:11:00,
2013-02-19 08:21:00,20.0,13.0,30.33,WNW,299,4.0,11.0,75,0.00,,,0.03,,2013-02-19 14:21:00,
2013-02-19 08:32:00,20.0,13.0,30.33,NW,323,5.0,15.0,74,0.00,,,0.03,,2013-02-19 14:32:00,
2013-02-19 08:42:00,20.0,13.0,30.33,NW,323,5.0,15.0,74,0.00,,,0.03,,2013-02-19 14:42:00,
2013-02-19 08:52:00,21.0,14.0,30.34,WNW,288,1.0,15.0,73,0.00,,,0.03,,2013-02-19 14:52:00,
2013-02-19 09:01:00,21.0,14.0,30.35,NW,323,6.0,12.0,73,0.00,,,0.03,,2013-02-19 15:01:00,
2013-02-19 09:11:00,21.0,14.0,30.35,NW,323,6.0,12.0,73,0.00,,,0.03,,2013-02-19 15:11:00,
2013-02-19 09:21:00,21.0,14.0,30.35,NW,323,6.0,12.0,73,0.00,,,0.03,,2013-02-19 15:21:00,
2013-02-19 09:32:00,22.0,13.0,30.36,West,261,7.0,16.0,69,0.00,,,0.03,,2013-02-19 15:32:00,
2013-02-19 09:42:00,22.0,13.0,30.36,West,261,7.0,16.0,69,0.00,,,0.03,,2013-02-19 15:42:00,
2013-02-19 09:52:00,22.0,12.0,30.37,NW,317,8.0,14.0,66,0.00,,,0.03,,2013-02-19 15:52:00,
2013-02-19 10:02:00,22.0,10.0,30.38,NW,315,7.0,19.0,60,0.00,,,0.03,,2013-02-19 16:02:00,
2013-02-19 10:11:00,22.0,10.0,30.38,NW,315,7.0,19.0,60,0.00,,,0.03,,2013-02-19 16:11:00,
2013-02-19 10:21:00,22.0,10.0,30.38,NW,315,7.0,19.0,60,0.00,,,0.03,,2013-02-19 16:21:00,
2013-02-19 10:32:00,23.0,10.0,30.39,West,281,8.0,14.0,56,0.00,,,0.03,,2013-02-19 16:32:00,
2013-02-19 10:42:00,23.0,10.0,30.39,West,281,8.0,14.0,56,0.00,,,0.03,,2013-02-19 16:42:00,
2013-02-19 10:52:00,24.0,9.0,30.40,NNW,344,7.0,21.0,52,0.00,,,0.03,,2013-02-19 16:52:00,
2013-02-19 11:01:00,24.0,9.0,30.40,NW,319,5.0,16.0,53,0.00,,,0.03,,2013-02-19 17:01:00,
2013-02-19 11:11:00,24.0,9.0,30.40,NW,319,5.0,16.0,53,0.00,,,0.03,,2013-02-19 17:11:00,
2013-02-19 11:21:00,24.0,9.0,30.40,NW,306,8.0,13.0,53,0.00,,,0.03,,2013-02-19 17:21:00,
2013-02-19 11:32:00,25.0,8.0,30.41,WNW,299,8.0,19.0,47,0.00,,,0.02,,2013-02-19 17:32:00,
2013-02-19 11:42:00,25.0,8.0,30.41,WNW,299,8.0,19.0,47,0.00,,,0.02,,2013-02-19 17:42:00,
2013-02-19 11:52:00,25.0,9.0,30.41,WNW,291,6.0,13.0,49,0.00,,,0.02,,2013-02-19 17:52:00,
2013-02-19 12:01:00,26.0,9.0,30.42,NW,309,4.0,15.0,49,0.00,,,0.02,,2013-02-19 18:01:00,
2013-02-19 12:11:00,26.0,9.0,30.42,NW,309,4.0,15.0,49,0.00,,,0.02,,2013-02-19 18:11:00,
2013-02-19 12:21:00,26.0,10.0,30.42,NW,311,2.0,14.0,50,0.00,,,0.02,,2013-02-19 18:21:00,
2013-02-19 12:31:00,27.0,9.0,30.42,West,269,2.0,13.0,47,0.00,,,0.01,,2013-02-19 18:31:00,
2013-02-19 12:42:00,27.0,8.0,30.42,NW,317,5.0,17.0,44,0.00,,,0.01,,2013-02-19 18:42:00,
2013-02-19 12:51:00,27.0,8.0,30.42,NW,317,5.0,17.0,44,0.00,,,0.01,,2013-02-19 18:51:00,
2013-02-19 13:01:00,28.0,8.0,30.42,NW,309,6.0,13.0,42,0.00,,,0.01,,2013-02-19 19:01:00,
2013-02-19 13:11:00,28.0,8.0,30.42,NW,309,6.0,13.0,42,0.00,,,0.01,,2013-02-19 19:11:00,
2013-02-19 13:21:00,28.0,7.0,30.41,NW,311,4.0,16.0,40,0.00,,,0.01,,2013-02-19 19:21:00,
2013-02-19 13:32:00,29.0,7.0,30.41,WNW,298,6.0,13.0,39,0.00,,,0.00,,2013-02-19 19:32:00,
2013-02-19 13:41:00,29.0,7.0,30.41,WNW,298,6.0,13.0,39,0.00,,,0.00,,2013-02-19 19:41:00,
2013-02-19 13:51:00,30.0,9.0,30.41,NW,315,5.0,17.0,40,0.00,,,0.00,,2013-02-19 19:51:00,
2013-02-19 14:01:00,31.0,8.0,30.41,WNW,298,8.0,14.0,37,0.00,,,0.00,,2013-02-19 20:01:00,
2013-02-19 14:12:00,31.0,8.0,30.41,WNW,298,8.0,14.0,37,0.00,,,0.00,,2013-02-19 20:12:00,
2013-02-19 14:21:00,30.0,5.0,30.40,WNW,300,5.0,15.0,34,0.00,,,0.00,,2013-02-19 20:21:00,
2013-02-19 14:32:00,31.0,7.0,30.40,NW,315,5.0,16.0,35,0.00,,,0.00,,2013-02-19 20:32:00,
2013-02-19 14:42:00,31.0,7.0,30.40,NW,315,5.0,16.0,35,0.00,,,0.00,,2013-02-19 20:42:00,
2013-02-19 14:52:00,31.0,5.0,30.40,NNW,338,4.0,15.0,33,0.00,,,0.00,,2013-02-19 20:52:00,
2013-02-19 15:02:00,32.0,7.0,30.40,WNW,297,2.0,13.0,35,0.00,,,0.00,,2013-02-19 21:02:00,
2013-02-19 15:11:00,32.0,7.0,30.40,WNW,297,2.0,13.0,35,0.00,,,0.00,,2013-02-19 21:11:00,
2013-02-19 15:21:00,32.0,7.0,30.40,WSW,254,1.0,14.0,34,0.00,,,0.00,,2013-02-19 21:21:00,
2013-02-19 15:32:00,32.0,5.0,30.40,WNW,299,4.0,17.0,31,0.00,,,0.00,,2013-02-19 21:32:00,
2013-02-19 15:42:00,32.0,5.0,30.40,WNW,299,4.0,17.0,31,0.00,,,0.00,,2013-02-19 21:42:00,
2013-02-19 15:51:00,32.0,4.0,30.40,NNW,346,4.0,16.0,30,0.00,,,0.00,,2013-02-19 21:51:00,
2013-02-19 16:02:00,32.0,5.0,30.40,NW,317,4.0,16.0,31,0.00,,,0.00,,2013-02-19 22:02:00,
2013-02-19 16:11:00,32.0,5.0,30.40,NW,317,4.0,16.0,31,0.00,,,0.00,,2013-02-19 22:11:00,
2013-02-19 16:21:00,32.0,5.0,30.39,West,266,3.0,14.0,31,0.00,,,0.00,,2013-02-19 22:21:00,
2013-02-19 16:32:00,31.0,3.0,30.40,NNW,330,4.0,12.0,30,0.00,,,0.00,,2013-02-19 22:32:00,
2013-02-19 16:41:00,31.0,3.0,30.40,NNW,330,4.0,12.0,30,0.00,,,0.00,,2013-02-19 22:41:00,
2013-02-19 16:51:00,31.0,3.0,30.40,NW,319,4.0,12.0,30,0.00,,,0.00,,2013-02-19 22:51:00,
2013-02-19 17:01:00,31.0,4.0,30.39,NNW,336,2.0,11.0,31,0.00,,,0.00,,2013-02-19 23:01:00,
2013-02-19 17:11:00,31.0,4.0,30.39,NNW,336,2.0,11.0,31,0.00,,,0.00,,2013-02-19 23:11:00,
2013-02-19 17:21:00,31.0,5.0,30.39,WNW,294,2.0,13.0,33,0.00,,,0.00,,2013-02-19 23:21:00,
2013-02-19 17:32:00,30.0,5.0,30.39,WNW,299,3.0,11.0,34,0.00,,,0.00,,2013-02-19 23:32:00,
2013-02-19 17:41:00,30.0,5.0,30.39,WNW,299,3.0,11.0,34,0.00,,,0.00,,2013-02-19 23:41:00,
2013-02-19 17:52:00,30.0,5.0,30.38,NNW,330,2.0,8.0,34,0.00,,,0.00,,2013-02-19 23:52:00,
2013-02-19 18:01:00,29.0,3.0,30.39,NW,309,2.0,10.0,32,0.00,,,0.00,,2013-02-20 00:01:00,
2013-02-19 18:11:00,29.0,3.0,30.39,NW,309,2.0,10.0,32,0.00,,,0.00,,2013-02-20 00:11:00,
2013-02-19 18:21:00,28.0,3.0,30.39,NW,307,0.0,5.0,34,0.00,,,0.00,,2013-02-20 00:21:00,
2013-02-19 18:32:00,27.0,3.0,30.39,NW,313,0.0,7.0,35,0.00,,,0.00,,2013-02-20 00:32:00,
2013-02-19 18:42:00,27.0,3.0,30.39,NW,313,0.0,7.0,35,0.00,,,0.00,,2013-02-20 00:42:00,
2013-02-19 18:52:00,27.0,4.0,30.38,NW,321,2.0,8.0,37,0.00,,,0.00,,2013-02-20 00:52:00,
2013-02-19 19:02:00,26.0,3.0,30.39,NNW,331,1.0,7.0,37,0.00,,,0.00,,2013-02-20 01:02:00,
2013-02-19 19:11:00,26.0,3.0,30.39,NNW,331,1.0,7.0,37,0.00,,,0.00,,2013-02-20 01:11:00,
2013-02-19 19:21:00,26.0,3.0,30.39,North,355,0.0,5.0,37,0.00,,,0.00,,2013-02-20 01:21:00,
2013-02-19 19:32:00,25.0,3.0,30.40,North,355,0.0,4.0,38,0.00,,,0.00,,2013-02-20 01:32:00,
2013-02-19 19:42:00,25.0,3.0,30.40,North,355,0.0,4.0,38,0.00,,,0.00,,2013-02-20 01:42:00,
2013-02-19 19:51:00,24.0,3.0,30.41,North,355,0.0,4.0,39,0.00,,,0.00,,2013-02-20 01:51:00,
2013-02-19 20:01:00,24.0,3.0,30.41,North,355,0.0,3.0,40,0.00,,,0.00,,2013-02-20 02:01:00,
2013-02-19 20:11:00,24.0,3.0,30.41,North,355,0.0,3.0,40,0.00,,,0.00,,2013-02-20 02:11:00,
2013-02-19 20:21:00,23.0,3.0,30.41,North,355,0.0,1.0,41,0.00,,,0.00,,2013-02-20 02:21:00,
2013-02-19 20:32:00,23.0,4.0,30.42,North,355,0.0,2.0,43,0.00,,,0.00,,2013-02-20 02:32:00,
2013-02-19 20:42:00,23.0,4.0,30.42,North,355,0.0,2.0,43,0.00,,,0.00,,2013-02-20 02:42:00,
2013-02-19 20:52:00,23.0,4.0,30.42,North,355,0.0,2.0,43,0.00,,,0.00,,2013-02-20 02:52:00,
2013-02-19 21:01:00,23.0,4.0,30.42,North,355,0.0,2.0,43,0.00,,,0.00,,2013-02-20 03:01:00,
2013-02-19 21:22:00,21.0,4.0,30.43,North,355,0.0,0.0,46,0.00,,,0.00,,2013-02-20 03:22:00,
2013-02-19 21:32:00,21.0,4.0,30.45,North,355,0.0,0.0,47,0.00,,,0.00,,2013-02-20 03:32:00,
2013-02-19 21:42:00,21.0,4.0,30.45,North,355,0.0,0.0,47,0.00,,,0.00,,2013-02-20 03:42:00,
2013-02-19 21:51:00,20.0,4.0,30.43,North,355,0.0,2.0,49,0.00,,,0.00,,2013-02-20 03:51:00,
2013-02-19 22:01:00,21.0,5.0,30.42,North,360,0.0,5.0,49,0.00,,,0.00,,2013-02-20 04:01:00,
2013-02-19 22:11:00,21.0,5.0,30.42,North,360,0.0,5.0,49,0.00,,,0.00,,2013-02-20 04:11:00,
2013-02-19 22:21:00,20.0,4.0,30.42,North,360,0.0,3.0,49,0.00,,,0.00,,2013-02-20 04:21:00,
2013-02-19 22:31:00,20.0,4.0,30.42,North,360,0.0,3.0,49,0.00,,,0.00,,2013-02-20 04:31:00,
2013-02-19 22:42:00,20.0,4.0,30.42,North,360,0.0,3.0,49,0.00,,,0.00,,2013-02-20 04:42:00,
2013-02-19 22:52:00,20.0,4.0,30.44,North,360,0.0,3.0,50,0.00,,,0.00,,2013-02-20 04:52:00,
2013-02-19 23:02:00,20.0,4.0,30.45,North,360,0.0,1.0,50,0.00,,,0.00,,2013-02-20 05:02:00,
2013-02-19 23:12:00,20.0,4.0,30.45,North,360,0.0,1.0,50,0.00,,,0.00,,2013-02-20 05:12:00,
2013-02-19 23:22:00,20.0,5.0,30.45,North,360,0.0,3.0,51,0.00,,,0.00,,2013-02-20 05:22:00,
2013-02-19 23:32:00,20.0,5.0,30.45,North,360,0.0,3.0,51,0.00,,,0.00,,2013-02-20 05:32:00,
2013-02-19 23:43:00,20.0,5.0,30.45,North,360,0.0,3.0,51,0.00,,,0.00,,2013-02-20 05:43:00,
2013-02-19 23:52:00,19.0,4.0,30.46,North,360,0.0,2.0,51,0.00,,,0.00,,2013-02-20 05:52:00,